EW5043 Weather Reports


Display with metric or nautical units.
time (UTC)temp
F
wind
direction
speed
MPH
gust
MPH
rain 1hr
in
rain 24hr
in
rain mn
in
humidity
%
barometer
mb
20191210210136 35 320 13.0 0.0 0.00 0.00 0.00 80 1012.8
20191210204631 35 313 14.0 0.0 0.00 0.00 0.00 80 1012.8
20191210203009 35 325 14.0 0.0 0.00 0.00 0.00 79 1012.0
20191210201933 36 313 14.0 0.0 0.00 0.00 0.00 81 1011.4
20191210193112 38 313 16.0 0.0 0.00 0.00 0.00 76 1010.5
20191210190100 38 325 14.0 0.0 0.00 0.00 0.00 78 1009.1
20191210183028 38 324 14.0 0.0 0.00 0.00 0.00 77 1008.9
20191210180333 38 321 16.0 0.0 0.00 0.00 0.00 76 1008.8
20191210174804 38 321 15.0 0.0 0.00 0.00 0.00 78 1008.9
20191210171625 39 319 14.0 0.0 0.00 0.00 0.00 77 1008.5
20191210170033 39 325 14.0 0.0 0.00 0.00 0.00 78 1008.7
20191210164614 40 322 13.0 0.0 0.00 0.00 0.00 78 1008.3
20191210163055 40 320 12.0 0.0 0.00 0.00 0.00 79 1008.5
20191210161702 40 319 12.0 0.0 0.00 0.00 0.00 79 1008.7
20191210160340 40 323 12.0 0.0 0.00 0.00 0.00 78 1008.2
20191210154616 40 330 13.0 0.0 0.00 0.00 0.00 77 1007.5
20191210153158 40 323 14.0 0.0 0.00 0.00 0.00 77 1007.6
20191210151552 40 323 15.0 0.0 0.00 0.00 0.00 76 1007.1
20191210150031 41 336 15.0 0.0 0.00 0.00 0.00 76 1006.3
20191210144524 41 331 16.0 0.0 0.00 0.00 0.00 80 1006.1
20191210140121 43 321 17.0 0.0 0.00 0.00 0.00 77 1005.0
20191210134640 43 318 15.0 0.0 0.00 0.00 0.00 77 1005.0
20191210131612 44 307 11.0 0.0 0.00 0.00 0.00 79 1004.3
20191210124515 47 319 7.0 0.0 0.00 0.00 0.00 71 1003.3
20191210123308 50 286 2.0 0.0 0.00 0.00 0.00 72 1002.8
20191210121644 50 278 2.0 0.0 0.00 0.00 0.00 72 1002.8
20191210120232 50 295 1.0 0.0 0.00 0.00 0.00 72 1002.3
20191210113149 50 278 3.0 0.0 0.00 0.00 0.00 73 1002.0
20191210111609 50 253 3.0 0.0 0.00 0.00 0.00 73 1001.7
20191210110054 51 248 3.0 0.0 0.00 0.00 0.00 74 1001.5
20191210104658 51 276 3.0 0.0 0.00 0.00 0.00 74 1001.4
20191210103016 51 236 3.0 0.0 0.00 0.00 0.00 75 1000.9
20191210100150 51 261 3.0 0.0 0.00 0.00 0.00 77 1000.4
20191210094717 51 242 4.0 0.0 0.00 0.00 0.00 79 1000.5
20191210091707 50 221 3.0 0.0 0.00 0.00 0.00 74 1000.3
20191210090037 49 206 6.0 0.0 0.00 0.00 0.00 73 999.8
20191210084527 49 216 6.0 0.0 0.00 0.00 0.00 72 999.9
20191210074654 49 248 12.0 0.0 0.00 0.00 0.00 75 999.2
20191210073113 48 215 14.0 0.0 0.00 0.00 0.00 77 998.7
20191210071616 49 217 13.0 0.0 0.00 0.00 0.00 78 998.6
20191210064601 48 207 16.0 0.0 0.00 0.00 0.00 79 997.9
20191210063052 48 213 16.0 0.0 0.00 0.00 0.00 79 997.8
20191210061536 48 208 16.0 0.0 0.00 0.00 0.00 79 997.9
20191210054651 48 206 16.0 0.0 0.00 0.00 0.00 79 997.9
20191210053128 48 205 17.0 0.0 0.00 0.00 0.00 79 997.7
20191210043028 47 217 19.0 0.0 0.00 0.00 0.07 79 998.2
20191210041521 47 205 17.0 0.0 0.00 0.00 0.07 79 998.0
20191210040014 47 202 17.0 0.0 0.00 0.00 0.07 79 998.0
20191210034648 46 211 17.0 0.0 0.00 0.00 0.07 79 998.0
20191210031617 46 208 17.0 0.0 0.00 0.00 0.07 79 998.3
20191210030117 47 198 17.0 0.0 0.00 0.00 0.07 79 998.2
20191210024627 46 204 16.0 0.0 0.00 0.00 0.07 79 998.2
20191210023145 47 207 17.0 0.0 0.00 0.00 0.07 79 998.2
20191210021621 46 221 14.0 0.0 0.00 0.00 0.07 79 998.1
20191210020209 46 219 16.0 0.0 0.00 0.00 0.07 79 998.3
20191210014535 46 205 15.0 0.0 0.00 0.00 0.07 79 998.3
20191210011517 46 205 18.0 0.0 0.00 0.00 0.07 78 998.5
20191210010134 45 213 19.0 0.0 0.00 0.00 0.07 78 998.5
20191210003135 45 213 19.0 0.0 0.00 0.00 0.07 76 998.7
20191210001622 45 209 21.0 0.0 0.00 0.00 0.07 76 998.6
20191210000146 45 205 21.0 0.0 0.00 0.00 0.07 77 998.8
20191209234534 45 212 19.0 0.0 0.00 0.00 0.06 77 998.8
20191209233051 45 204 19.0 0.0 0.00 0.00 0.06 78 999.0
20191209231526 45 210 20.0 0.0 0.00 0.00 0.06 78 999.0
20191209224635 45 211 20.0 0.0 0.00 0.00 0.06 78 998.9
20191209223141 44 211 21.0 0.0 0.00 0.00 0.06 77 999.1
20191209221635 43 200 20.0 0.0 0.00 0.00 0.06 75 999.2
20191209214629 43 201 22.0 0.0 0.00 0.00 0.06 72 999.6
20191209213054 43 206 22.0 0.0 0.00 0.00 0.06 73 999.9
20191209211517 43 197 21.0 0.0 0.00 0.00 0.06 72 1000.3